^^
Grace C. Lehan Memorial Weather Station Historical Data
 
Daily Summary for May 22, 2022 Units:  English    Metric   Both
Daily Weekly Monthly Yearly
  Current: High: Low: Average:
Temperature: 69.2 °F 72.6 °F 69.2 °F 70.8 °F
Dew Point: 65.5 °F 67.8 °F 65.5 °F 66.6 °F
Humidity: 88% 88% 85% 87%
Wind Speed: 0mph 0mph 0mph 0mph
Wind Gust: 0mph 0mph - -
WindCalm - -
Pressure: 29.96 in 30.00 in 29.95 in -
Precipitation: 0.00 in      
 
 
Tabular Data for May 22, 2022
Time Temperature Dew Point Pressure Wind Wind Speed Wind Gust Humidity Rainfall Rate (Hourly) solar
00:00 72.5 °F 67.7 °F 30.00 in Calm     85% 0.00 in 0 W/m2
00:09 72.6 °F 67.8 °F 30.00 in Calm     85% 0.00 in 0 W/m2
00:14 72.6 °F 67.8 °F 30.00 in Calm     85% 0.00 in 0 W/m2
00:19 72.5 °F 67.8 °F 30.00 in Calm     85% 0.00 in 0 W/m2
00:24 72.5 °F 67.7 °F 30.00 in Calm     85% 0.00 in 0 W/m2
00:29 72.4 °F 67.6 °F 30.00 in Calm     85% 0.00 in 0 W/m2
00:34 72.3 °F 67.5 °F 30.00 in Calm     85% 0.00 in 0 W/m2
00:39 72.2 °F 67.4 °F 29.99 in Calm     85% 0.00 in 0 W/m2
00:44 72.1 °F 67.3 °F 29.99 in Calm     85% 0.00 in 0 W/m2
00:49 72 °F 67.5 °F 29.99 in Calm     85.7% 0.00 in 0 W/m2
00:54 71.9 °F 67.5 °F 29.99 in Calm     86% 0.00 in 0 W/m2
00:59 71.7 °F 67.3 °F 29.98 in Calm     86% 0.00 in 0 W/m2
01:04 71.6 °F 67.2 °F 29.98 in Calm     86% 0.00 in 0 W/m2
01:09 71.5 °F 67.1 °F 29.98 in Calm     86% 0.00 in 0 W/m2
01:14 71.3 °F 66.9 °F 29.98 in Calm     86% 0.00 in 0 W/m2
01:19 71.2 °F 66.8 °F 29.97 in Calm     86% 0.00 in 0 W/m2
01:24 71.1 °F 67 °F 29.97 in Calm     87% 0.00 in 0 W/m2
01:29 71 °F 66.9 °F 29.97 in Calm     87% 0.00 in 0 W/m2
01:34 70.9 °F 66.8 °F 29.97 in Calm     87% 0.00 in 0 W/m2
01:39 70.8 °F 66.6 °F 29.97 in Calm     86.6% 0.00 in 0 W/m2
01:44 70.7 °F 66.4 °F 29.97 in Calm     86.1% 0.00 in 0 W/m2
01:49 70.6 °F 66.6 °F 29.97 in Calm     87% 0.00 in 0 W/m2
01:54 70.5 °F 66.5 °F 29.97 in Calm     87% 0.00 in 0 W/m2
01:59 70.4 °F 66.4 °F 29.96 in Calm     87% 0.00 in 0 W/m2
02:04 70.3 °F 66.3 °F 29.96 in Calm     87% 0.00 in 0 W/m2
02:09 70.3 °F 66.2 °F 29.96 in Calm     87% 0.00 in 0 W/m2
02:14 70.2 °F 66.2 °F 29.96 in Calm     87% 0.00 in 0 W/m2
02:19 70.1 °F 66.1 °F 29.96 in Calm     87% 0.00 in 0 W/m2
02:24 70 °F 66 °F 29.96 in Calm     87% 0.00 in 0 W/m2
02:29 69.9 °F 65.9 °F 29.96 in Calm     87% 0.00 in 0 W/m2
02:34 69.9 °F 65.8 °F 29.95 in Calm     87% 0.00 in 0 W/m2
02:39 69.8 °F 65.7 °F 29.96 in Calm     87% 0.00 in 0 W/m2
02:44 69.7 °F 65.8 °F 29.96 in Calm     87.5% 0.00 in 0 W/m2
02:49 69.6 °F 65.9 °F 29.96 in Calm     88% 0.00 in 0 W/m2
02:54 69.5 °F 65.8 °F 29.96 in Calm     88% 0.00 in 0 W/m2
02:59 69.5 °F 65.8 °F 29.96 in Calm     88% 0.00 in 0 W/m2
03:04 69.5 °F 65.8 °F 29.96 in Calm     88% 0.00 in 0 W/m2
03:09 69.4 °F 65.7 °F 29.96 in Calm     88% 0.00 in 0 W/m2
03:14 69.4 °F 65.7 °F 29.96 in Calm     88% 0.00 in 0 W/m2
03:19 69.3 °F 65.6 °F 29.96 in Calm     88% 0.00 in 0 W/m2
03:24 69.2 °F 65.5 °F 29.96 in Calm     88% 0.00 in 0 W/m2
03:28 69.2 °F 65.5 °F 29.96 in Calm     88% 0.00 in 0 W/m2
Hartford County Weather
Compliments of Weather Underground - 2 mb